This is the latest recevied weather packets stored in our database for station/object JF2ZGN-13. If no packets are shown the sender has not sent any weather packets the latest 10 day(s).
| Time | Temp. | Humidity | Pressure | Rain* | Wind** | Luminosity | Snow |
|---|---|---|---|---|---|---|---|
| 1777453201 | 11.67° C | 79% | 905.9 hPa | 0 mm | - | - | - |
| 1777452000 | 11.67° C | 79% | 905.9 hPa | 0 mm | - | - | - |
| 1777451400 | 12.22° C | 79% | 905.7 hPa | 0 mm | - | - | - |
| 1777450799 | 12.78° C | 77% | 905.4 hPa | 0 mm | - | - | - |
| 1777450199 | 12.78° C | 75% | 905.2 hPa | 0 mm | - | - | - |
| 1777449598 | 13.33° C | 67% | 905.2 hPa | 0 mm | - | - | - |
| 1777448998 | 13.33° C | 70% | 905.1 hPa | 0 mm | - | - | - |
| 1777448398 | 13.33° C | 69% | 905.1 hPa | 0 mm | - | - | - |
| 1777447797 | 13.89° C | 67% | 905.1 hPa | 0 mm | - | - | - |
| 1777447196 | 13.89° C | 63% | 904.9 hPa | 0 mm | - | - | - |
| 1777446598 | 13.89° C | 52% | 904.9 hPa | 0 mm | - | - | - |
| 1777445395 | 13.89° C | 40% | 904.7 hPa | 0 mm | - | - | - |
| 1777444794 | 13.89° C | 40% | 904.7 hPa | 0 mm | - | - | - |
| 1777444194 | 13.89° C | 41% | 904.7 hPa | 0 mm | - | - | - |
| 1777443593 | 13.89° C | 45% | 904.5 hPa | 0 mm | - | - | - |
| 1777442993 | 13.89° C | 46% | 904.6 hPa | 0 mm | - | - | - |
| 1777442392 | 14.44° C | 46% | 904.6 hPa | 0 mm | - | - | - |
| 1777441792 | 15.56° C | 33% | 904.6 hPa | 0 mm | - | - | - |
| 1777441192 | 15.56° C | 31% | 904.5 hPa | 0 mm | - | - | - |
| 1777440591 | 15.56° C | 23% | 904.4 hPa | 0 mm | - | - | - |
| 1777439992 | 15.56° C | 15% | 904.5 hPa | 0 mm | - | - | - |
| 1777439390 | 15° C | 19% | 904.2 hPa | 0 mm | - | - | - |
| 1777438790 | 15° C | 14% | 904.2 hPa | 0 mm | - | - | - |
| 1777438190 | 15° C | 18% | 904.5 hPa | 0 mm | - | - | - |
| 1777437589 | 15° C | 24% | 904.4 hPa | 0 mm | - | - | - |
* Rain since midnight (hover to see other rain measurements)
** Current wind speed in m/s (hover to see current wind gust speed)